Location: Trois-Rivi�res
(46.3500°N, 72.5500°W)
Time: 16:53:28
(UTC-04:00)

OTV 5 (USA 277) - Pass Details

Date: 16 October 2017
Orbit: 404 x 417 km, 43.0° (Epoch: 07 September)

Event Time Altitude Azimuth Distance (km) Brightness Sun altitude
Rises 19:28:46 0° 264° (W) 2,354 ? -15.8°
Reaches altitude 10° 19:30:55 10° 258° (WSW) 1,492 ? -16.2°
Maximum altitude 19:34:10 46° 184° (S) 567 ? -16.8°
Enters shadow 19:35:01 36° 141° (SE) 671 ? -16.9°
